Regional Weather Roundup
Issued by NWS

Home | Current Version | Previous Version | Graphics & Text | Print | Product List | Glossary On
Versions: 1 2 3 4 5 6 7 8 9 10 11 12 13 14 15 16 17 18 19 20 21 22 23 24 25 26 27 28 29 30 31 32 33 34 35 36 37 38 39 40 41 42 43 44 45 46 47 48 49 50
000
ASUS43 KMKX 300314
RWRWI

WISCONSIN REGIONAL WEATHER ROUNDUP
NATIONAL WEATHER SERVICE MILWAUKEE/SULLIVAN WI
1000 PM CDT FRI MAY 29 2015

NOTE: "FAIR" INDICATES FEW OR NO CLOUDS BELOW 12,000 FEET WITH NO
SIGNIFICANT WEATHER AND/OR OBSTRUCTIONS TO VISIBILITY.

WIZ001-002-006>008-014>016-023>028-300400-
NORTHWEST WISCONSIN

CITY           SKY/WX    TMP DP  RH WIND       PRES   REMARKS
SUPERIOR ARPT  CLOUDY    53  43  70 N13       30.07R
ASHLAND        CLOUDY    53  50  89 NW10      30.03R
HAYWARD        LGT RAIN  53  50  89 N9G18     30.02R FOG
SIREN          CLOUDY    53  51  93 N7        30.05R
CUMBERLAND     CLOUDY    54  52  94 N15       30.01R
RICE LAKE      CLOUDY    57  54  89 N10       30.01R
CHETEK         CLOUDY    59  58  95 NW7       29.98R
LADYSMITH      CLOUDY    58  55  91 N8        30.00R
EAU CLAIRE     LGT RAIN  62  60  93 N13G20    29.93R
MENOMONIE      RAIN      60  60  98 N15       29.95R
NEW RICHMOND   DRIZZLE   55  54  97 N15G22    30.02R
OSCEOLA        DRIZZLE   54  54 100 N9        30.06R
$$

WIZ003>005-009-010-017-018-300400-
NORTH CENTRAL WISCONSIN

CITY           SKY/WX    TMP DP  RH WIND       PRES   REMARKS
MANITOWISH WTR DRIZZLE   55  55 100 N3        29.98R
ARBOR VITAE    DRIZZLE   57  55  94 N10       29.98R
WOODRUFF       DRIZZLE   57  55  94 N10       29.98R
RHINELANDER    LGT RAIN  59  57  93 N6        29.96R
EAGLE RIVER    LGT RAIN  56  56  99 N6        29.96R
LAND O LAKES   LGT RAIN  55  54  97 N8        29.98R
PHILLIPS       LGT RAIN  55  54  94 N7        29.98R
TOMAHAWK       DRIZZLE   58  56  94 N6        29.96R
MEDFORD        LGT RAIN  60  59  96 NE9       29.94R
MERRILL        LGT RAIN  61  61 100 N3        29.95R
$$

WIZ029-030-035-036-043>047-300400-
CENTRAL WISCONSIN

CITY           SKY/WX    TMP DP  RH WIND       PRES   REMARKS
WAUSAU         LGT RAIN  63  60  90 N5        29.92R
MOSINEE        CLOUDY    63  63 100 N81       29.94R
MARSHFIELD     LGT RAIN  64  61  90 NE9       29.92R
STEVENS POINT  RAIN      64  64  99 CALM      29.93R
WAUPACA        HVY RAIN  67  66  96 CALM      29.92R
WAUTOMA        RAIN      66  66 100 CALM      29.92R FOG
WISC RAPIDS    LGT RAIN  66  63  90 N5        29.92R
CAMP DOUGLAS   CLOUDY    66  66 100 CALM      29.91R
$$

WIZ011>013-019>022-031-037>040-048>050-300400-
NORTHEAST WISCONSIN

CITY           SKY/WX    TMP DP  RH WIND       PRES   REMARKS
ANTIGO         LGT RAIN  60  59  97 N8        29.94R
SHAWANO        RAIN      65  63  94 CALM      29.91R
OCONTO         CLOUDY    63  63 100 CALM      29.89R
STURGEON BAY   CLOUDY    64  61  88 N8        29.90F
GREEN BAY      LGT RAIN  66  64  93 N3        29.90R
MANITOWOC      CLOUDY    60  59  96 NE3       29.89R
APPLETON       LGT RAIN  64  64 100 CALM      29.91R
CLINTONVILLE   RAIN      64  63  94 CALM      29.90R
OSHKOSH        CLOUDY    66  62  87 N9        29.90R
$$

WIZ032>034-041-042-053>061-300400-
SOUTHWEST WISCONSIN

CITY           SKY/WX    TMP DP  RH WIND       PRES   REMARKS
LA CROSSE      RAIN      67  65  93 N3        29.90S FOG
SPARTA         DRIZZLE   65  64  96 CALM      29.92R
VIROQUA        CLOUDY    64  64 100 E3        29.92S
BOSCOBEL       CLOUDY    68  66  93 CALM      29.91R
PRAIRIE DU CHI DRIZZLE   68  64  86 CALM      29.90R
PLATTEVILLE    CLOUDY    70  67  88 SW6       29.93R
$$

WIZ056-057-062-063-064-067-068-300400-
SOUTH CENTRAL WISCONSIN

CITY           SKY/WX    TMP DP  RH WIND       PRES   REMARKS
REEDSBURG      LGT RAIN  65  64  97 CALM      29.91R
BARABOO/DELLS  LGT RAIN  65  63  93 CALM      29.92R
LONE ROCK      LGT RAIN  69  63  81 NW7       29.91R
MINERAL POINT  LGT RAIN  72  68  88 SW6       29.92R
MADISON        CLOUDY    72  64  76 SW6       29.90R
MIDDLETON      CLOUDY    71  65  82 SW6       29.91R
WATERTOWN      CLOUDY   N/A N/A N/A SW6       29.90R
MONROE         CLOUDY    70  68  94 S8        29.92R
JANESVILLE     CLOUDY    70  68  94 S5        29.91R
$$

WIZ051-052-058>065-066-070>072-300400-
SOUTHEAST WISCONSIN

CITY           SKY/WX    TMP DP  RH WIND       PRES   REMARKS
MILWAUKEE      MOCLDY    72  66  81 SW7       29.90R
WAUKESHA       CLOUDY    68  64  88 SW5       29.92R
MILWAUKEE/TIMM CLOUDY    70  64  83 SW6       29.91R
RACINE         MOCLDY    69  65  86 SW6       29.92R
BURLINGTON     CLOUDY    67  64  87 SW6       29.92R
KENOSHA        CLOUDY    71  66  84 SW6       29.91S
FOND DU LAC    CLOUDY    68  61  78 N9        29.90R
SHEBOYGAN      CLOUDY    65  64  97 S3        29.88R FOG
WEST BEND      CLOUDY    68  64  88 CALM      29.89R
JUNEAU         CLOUDY    67  66  94 SW3       29.90S
$$

LSZ147-162-300400-
LAKE SUPERIOR

STATION/POSITION TIME  TEMP    WIND        PRES    WAVE
                       AIR SEA DIR/SP/G            HT/PER
                 (UTC) (F)     (DEG/KT/KT) (MB)    (FT/S)
W MID LAKE BUOY  0250   43 37  320/ 10/ 12   N/A     0
DEVILS ISLAND    0300   49     330/ 19/ 20   N/A
PORT WING        0140   47     350/ 10/ 11   N/A
SAXON HARBOR     0200   53        CALM       N/A
$$

LMZ867-665-643>646-300400-
LAKE MICHIGAN

STATION/POSITION TIME  TEMP    WIND        PRES    WAVE
                       AIR SEA DIR/SP/G            HT/PER
                 (UTC) (F)     (DEG/KT/KT) (MB)    (FT/S)
CHAMBERS ISLAND  0200   61     320/  8/  9   N/A
N MID LAKE BUOY  0250   47 37  200/ 10/ 12   N/A     1/ 4
NORTHPORT PIER   0200   53     190/  2/  5   N/A
SISTER BAY       0218   61     330/ 10/ 11   N/A
ALGOMA LAKESHORE 0208          220/  7/  9   N/A
KEWAUNEE LAKESHO 0200   51     180/  9/ 11   N/A
SHEBOYGAN LAKESH 0300   57     190/  6/  7   N/A
PORT WASHINGTON  0240   57      CALM  /  2   N/A
ATWATER BUOY     0200   54     170/  8/ 10   N/A
MILWAUKEE LAKESH 0200   58     210/  4/  5   N/A
S MID LAKE BUOY  0250   47 38  200/  8/  8   N/A     0
KENOSHA   LAKESH 0300   73     220/  4/  5   N/A
$$

TC  - TEMPERATURE IN CELSIUS
VSB - VISIBILITY IN STATUTE MILES
WCI - WIND CHILL INDEX
HX  - HEAT INDEX



USA.gov is the U.S. government's official web portal to all federal, state and local government web resources and services.